Weather History for KSAT - April, 2015

Change the Weather History Date:

Monday, April 6, 2015

  Actual Average Record
Temperature  
Mean Temperature 76 °F 67 °F  
Max Temperature 83 °F 79 °F 94 °F (1948)
Min Temperature 68 °F 55 °F 34 °F (1966)
Degree Days  
Heating Degree Days 0 2  
Month to date heating degree days 1 14  
Since 1 July heating degree days 1488 1469  
Cooling Degree Days 11 4  
Month to date cooling degree days 44 23  
Year to date cooling degree days 113 114  
Growing Degree Days 25 (Base 50)    
Moisture  
Dew Point 65 °F    
Average Humidity 71    
Maximum Humidity 90    
Minimum Humidity 51    
Precipitation  
Precipitation T in 0.06 in 1.91 in (1940)
Month to date precipitation 0.03 0.35  
Year to date precipitation 7.20 6.21  
Snow  
Snow 0.00 in - - ()
Month to date snowfall 0.0  
Since 1 July snowfall T  
Snow Depth 0.00 in    
Sea Level Pressure  
Sea Level Pressure 29.93 in    
Wind  
Wind Speed 12 mph (SSE)    
Max Wind Speed 25 mph    
Max Gust Speed 29 mph    
Visibility 10 miles    
Events      
T = Trace of Precipitation, MM = Missing Value Source: NWS Daily Summary

Daily Weather History Graph

Daily Weather History Graph

Search for Another Location

Airport or City:

Trip Planner

Search our weather history database for the weather conditions in past years. The results will help you decide how hot, cold, wet, or windy it might be!

Date:

Astronomy

Apr. 06, 2015 Rise Set
Actual Time 7:17 AM CDT 7:55 PM CDT
Civil Twilight 6:53 AM CDT 8:19 PM CDT
Nautical Twilight 6:25 AM CDT 8:47 PM CDT
Astronomical Twilight 5:56 AM CDT 9:16 PM CDT
Moon 10:05 PM CDT (4/6) 8:38 AM CDT (4/6)
Length of Visible Light 13h 25m
Length of Day
12h 37m
Waning Gibbous, 95% of the Moon is Illuminated
Apr 6
Waning Gibbous
Apr 11
Last Quarter
Apr 18
New
Apr 25
First Quarter
May 3
Full

Hourly Weather History & Observations

Time (CDT) Temp. Heat Index Dew Point Humidity Pressure Visibility Wind Dir Wind Speed Gust Speed Precip Events Conditions
12:51 AM 69.1 °F - 64.9 °F 87% 29.90 in 10.0 mi SSE 11.5 mph - N/A   Overcast
1:36 AM 69.1 °F - 64.9 °F 87% 29.94 in 10.0 mi SSE 10.4 mph - N/A   Overcast
1:51 AM 69.1 °F - 64.9 °F 87% 29.90 in 10.0 mi SSE 11.5 mph - N/A   Overcast
2:51 AM 69.1 °F - 64.9 °F 87% 29.90 in 10.0 mi SSE 10.4 mph - N/A   Overcast
2:58 AM 69.1 °F - 64.9 °F 87% 29.95 in 10.0 mi SSE 11.5 mph - N/A   Overcast
3:51 AM 69.1 °F - 64.0 °F 84% 29.89 in 10.0 mi SSE 9.2 mph - N/A   Overcast
4:47 AM 69.8 °F - 64.4 °F 83% 29.93 in 10.0 mi South 11.5 mph - N/A   Overcast
4:51 AM 69.1 °F - 64.9 °F 87% 29.89 in 10.0 mi South 9.2 mph - N/A   Overcast
5:51 AM 69.1 °F - 64.0 °F 84% 29.93 in 10.0 mi SSW 3.5 mph - N/A   Overcast
5:56 AM 69.1 °F - 64.0 °F 84% 29.97 in 10.0 mi SSW 3.5 mph - N/A   Overcast
6:51 AM 68.0 °F - 64.0 °F 87% 29.93 in 10.0 mi ESE 5.8 mph - N/A   Overcast
7:17 AM 69.1 °F - 64.9 °F 87% 29.99 in 10.0 mi East 3.5 mph - N/A   Overcast
7:51 AM 68.0 °F - 64.9 °F 90% 29.94 in 10.0 mi SE 9.2 mph - 0.00 in   Overcast
8:03 AM 69.1 °F - 64.9 °F 87% 29.98 in 10.0 mi SE 10.4 mph - N/A   Overcast
8:36 AM 70.0 °F - 66.0 °F 87% 29.99 in 10.0 mi SE 12.7 mph - N/A   Overcast
8:51 AM 70.0 °F - 66.0 °F 87% 29.94 in 10.0 mi SE 12.7 mph - N/A   Mostly Cloudy
9:09 AM 72.0 °F - 66.0 °F 81% 29.98 in 10.0 mi SSE 15.0 mph - N/A   Mostly Cloudy
9:28 AM 72.0 °F - 64.9 °F 78% 29.99 in 10.0 mi SSE 12.7 mph - N/A   Mostly Cloudy
9:30 AM 71.1 °F - 64.9 °F 81% 29.99 in 10.0 mi SSE 13.8 mph - N/A   Overcast
9:48 AM 73.4 °F - 64.4 °F 73% 29.99 in 10.0 mi SSE 15.0 mph - N/A   Mostly Cloudy
9:51 AM 72.0 °F - 64.9 °F 78% 29.94 in 10.0 mi SSE 13.8 mph - N/A   Mostly Cloudy
10:51 AM 73.0 °F - 64.0 °F 73% 29.95 in 10.0 mi SSE 17.3 mph 23.0 mph N/A   Mostly Cloudy
11:51 AM 73.9 °F - 64.0 °F 71% 29.95 in 10.0 mi South 12.7 mph - N/A   Overcast
12:51 PM 75.9 °F - 64.9 °F 69% 29.93 in 10.0 mi South 11.5 mph - N/A   Overcast
1:34 PM 78.1 °F - 64.9 °F 64% 29.96 in 10.0 mi SSE 15.0 mph - N/A   Mostly Cloudy
1:51 PM 79.0 °F - 64.9 °F 62% 29.91 in 10.0 mi South 10.4 mph - N/A   Mostly Cloudy
2:51 PM 79.0 °F - 64.9 °F 62% 29.90 in 10.0 mi South 12.7 mph 20.7 mph N/A   Mostly Cloudy
3:51 PM 81.0 °F 82.7 °F 64.9 °F 58% 29.87 in 10.0 mi South 10.4 mph 20.7 mph N/A   Mostly Cloudy
4:51 PM 81.0 °F 82.2 °F 63.0 °F 54% 29.85 in 10.0 mi South 13.8 mph - N/A   Scattered Clouds
5:51 PM 82.0 °F 83.1 °F 63.0 °F 52% 29.85 in 10.0 mi South 10.4 mph 20.7 mph N/A   Scattered Clouds
6:51 PM 81.0 °F 82.5 °F 64.0 °F 56% 29.86 in 10.0 mi SSE 11.5 mph - N/A   Mostly Cloudy
7:51 PM 79.0 °F - 64.9 °F 62% 29.88 in 10.0 mi SSE 9.2 mph - N/A   Mostly Cloudy
8:51 PM 75.9 °F - 66.9 °F 74% 29.90 in 10.0 mi SE 11.5 mph - N/A   Mostly Cloudy
9:51 PM 73.9 °F - 68.0 °F 82% 29.91 in 10.0 mi SE 10.4 mph - N/A   Mostly Cloudy
10:04 PM 73.9 °F - 68.0 °F 82% 29.96 in 10.0 mi SSE 13.8 mph - N/A   Overcast
10:24 PM 73.9 °F - 68.0 °F 82% 29.97 in 10.0 mi SSE 12.7 mph - N/A   Overcast
10:51 PM 73.9 °F - 68.0 °F 82% 29.94 in 10.0 mi SSE 15.0 mph - N/A   Overcast
11:48 PM 73.4 °F - 68.0 °F 83% 29.97 in 10.0 mi SSE 17.3 mph 24.2 mph N/A   Overcast
11:51 PM 72.0 °F - 68.0 °F 87% 29.92 in 10.0 mi SSE 16.1 mph 24.2 mph N/A   Overcast